This is the latest recevied weather packets stored in our database for station/object XQ6AK-15. If no packets are shown the sender has not sent any weather packets the latest 10 day(s).
| Time | Temp. | Humidity | Pressure | Rain* | Wind** | Luminosity | Snow |
|---|---|---|---|---|---|---|---|
| 1788122436 | 8.89° C | 99% | 1010.5 hPa | 0 mm | - | 158 W/m² | - |
| 1788122133 | 7.78° C | 99% | 1010.5 hPa | 0 mm | - | 140 W/m² | - |
| 1788121833 | 7.22° C | 99% | 1010.8 hPa | 0 mm | - | 71 W/m² | - |
| 1788121527 | 7.22° C | 99% | 1010.6 hPa | 0 mm | - | 72 W/m² | - |
| 1788121223 | 7.78° C | 99% | 1010.4 hPa | 0 mm | - | 67 W/m² | - |
| 1788120922 | 7.78° C | 99% | 1010.5 hPa | 0 mm | - | 61 W/m² | - |
| 1788120617 | 7.78° C | 99% | 1010.6 hPa | 0 mm | - | 85 W/m² | - |
| 1788120313 | 7.22° C | 99% | 1010.5 hPa | 0 mm | - | 98 W/m² | - |
| 1788120012 | 7.78° C | 99% | 1010.5 hPa | 1.27 mm | - | 107 W/m² | - |
| 1788119707 | 7.22° C | 99% | 1010.4 hPa | 1.27 mm | - | 119 W/m² | - |
| 1788119405 | 7.78° C | 99% | 1010.3 hPa | 0 mm | - | 125 W/m² | - |
| 1788119099 | 7.78° C | 99% | 1010.4 hPa | 1.78 mm | - | 78 W/m² | - |
| 1788118794 | 7.22° C | 99% | 1010.3 hPa | 1.78 mm | - | 55 W/m² | - |
| 1788118493 | 7.22° C | 99% | 1010.5 hPa | 1.27 mm | - | 54 W/m² | - |
| 1788118188 | 7.22° C | 99% | 1010.5 hPa | 1.78 mm | - | 45 W/m² | - |
| 1788117883 | 7.22° C | 99% | 1010.5 hPa | 3.05 mm | - | 33 W/m² | - |
| 1788117579 | 7.78° C | 99% | 1010.3 hPa | 3.05 mm | - | 36 W/m² | - |
| 1788117278 | 7.78° C | 99% | 1010.6 hPa | 1.78 mm | - | 49 W/m² | - |
| 1788116974 | 7.78° C | 99% | 1010.5 hPa | 1.78 mm | - | 39 W/m² | - |
| 1788116669 | 7.78° C | 99% | 1010.6 hPa | 1.78 mm | - | 44 W/m² | - |
| 1788116368 | 7.78° C | 99% | 1010.6 hPa | 1.27 mm | - | 47 W/m² | - |
| 1788116064 | 7.78° C | 99% | 1010.4 hPa | 3.05 mm | - | 43 W/m² | - |
| 1788115759 | 7.78° C | 99% | 1010.5 hPa | 1.78 mm | - | 49 W/m² | - |
| 1788115458 | 7.78° C | 99% | 1010.3 hPa | 1.27 mm | - | 59 W/m² | - |
| 1788115157 | 7.78° C | 99% | 1010.3 hPa | 1.78 mm | - | 56 W/m² | - |
* Rain latest hour (hover to see other rain measurements)
** Current wind speed in m/s (hover to see current wind gust speed)